Location: Foligno
(42.9600°N, 12.7050°E)
Time: 09:59:13
(UTC+02:00)

ISS - Pass Details

Date: 22 May 2018
Orbit: 402 x 407 km, 51.6° (Epoch: 27 May)

Event Time Altitude Azimuth Distance (km) Brightness Sun altitude
Rises 04:41:50 0° 296° (WNW) 2,317 -0.2 -9.6°
Reaches altitude 10° 04:44:03 10° 286° (WNW) 1,455 -1.4 -9.3°
Maximum altitude 04:46:58 30° 222° (SW) 747 -3.0 -8.8°
Drops below altitude 10° 04:49:51 10° 159° (SSE) 1,447 -1.2 -8.4°
Sets 04:52:03 0° 148° (SSE) 2,302 -0.1 -8.1°
